Location: El Hornillo
(40.2499°N, 5.1036°W)
Time: 04:59:47
(UTC+00:00)

FENGYUN 1C DEB - Visible Passes

Search period start: 19 January 2026 00:00
Search period end: 29 January 2026 00:00
Orbit: 837 x 914 km, 98.8° (Epoch: 18 January)

Date Brightness Start Highest point End Pass type
(mag) Time Alt. Az. Time Alt. Az. Time Alt. Az.
19 Jan ? 06:26:46 10° ENE 06:29:16 13° E 06:31:46 10° ESE visible
19 Jan ? 17:55:14 10° ESE 17:59:31 24° ENE 18:03:50 10° NNE visible
19 Jan ? 19:35:12 10° S 19:40:23 46° W 19:45:42 10° NNW visible
20 Jan ? 06:22:47 10° ENE 06:24:39 11° E 06:26:30 10° ESE visible
20 Jan ? 17:50:53 10° ESE 17:55:00 22° ENE 17:59:08 10° NNE visible
20 Jan ? 19:30:32 10° S 19:35:47 50° W 19:41:11 10° NNW visible
21 Jan ? 06:19:17 10° E 06:20:00 10° E 06:20:44 10° E visible
21 Jan ? 19:25:53 10° S 19:31:13 55° W 19:36:40 10° NNW visible
22 Jan ? 19:21:14 10° S 19:26:37 61° WSW 19:32:07 10° NNW visible
23 Jan ? 19:16:36 10° S 19:22:02 67° WSW 19:27:35 10° NNW visible
24 Jan ? 19:11:59 10° S 19:17:27 74° WSW 19:23:02 10° NNW visible
25 Jan ? 19:07:23 10° S 19:12:52 80° WSW 19:18:29 10° NNW visible
26 Jan ? 19:02:48 10° SSE 19:08:17 88° WSW 19:13:55 10° NNW visible
26 Jan ? 20:49:36 10° W 20:50:16 10° W 20:50:56 10° W visible
27 Jan ? 18:58:13 10° SSE 19:03:43 85° ENE 19:09:21 10° NNW visible
27 Jan ? 20:43:48 10° WSW 20:45:37 12° W 20:47:27 10° WNW visible
28 Jan ? 18:53:39 10° SSE 18:59:08 78° ENE 19:04:47 10° N visible
28 Jan ? 20:38:32 10° WSW 20:40:59 13° W 20:43:27 10° WNW visible
